Weather History for Marfa, TX

Change the Weather History Date:

Thursday, October 6, 2011

  Actual Average Record
Temperature  
Mean Temperature 67 °F -  
Max Temperature 86 °F 74 °F 86 °F (2007)
Min Temperature 48 °F 47 °F 37 °F (2013)
Cooling Degree Days 2    
Growing Degree Days 17 (Base 50)    
Moisture  
Dew Point 41 °F    
Average Humidity 50    
Maximum Humidity 93    
Minimum Humidity 12    
Precipitation  
Precipitation 0.00 in - - ()
Sea Level Pressure  
Sea Level Pressure 29.99 in    
Wind  
Wind Speed 9 mph (SSW)    
Max Wind Speed 26 mph    
Max Gust Speed 37 mph    
Visibility 10 miles    
Events      
Averages and records for this station are not official NWS values.
T = Trace of Precipitation, MM = Missing Value Source: NWS Daily Summary

Daily Weather History Graph

Daily Weather History Graph

Search for Another Location

Airport:

Trip Planner

Search our weather history database for the weather conditions in past years. The results will help you decide how hot, cold, wet, or windy it might be!

Date:

Astronomy

Oct. 06, 2011 Rise Set
Actual Time 7:52 AM CDT 7:35 PM CDT
Civil Twilight 7:28 AM CDT 7:59 PM CDT
Nautical Twilight 7:00 AM CDT 8:27 PM CDT
Astronomical Twilight 6:32 AM CDT 8:55 PM CDT
Moon 4:32 PM CDT (10/6) 3:03 AM CDT (10/6)
Length of Visible Light 12h 31m
Length of Day
11h 43m
Waxing Gibbous, 75% of the Moon is Illuminated
Oct 6
Waxing Gibbous
Oct 11
Full
Oct 19
Last Quarter
Oct 26
New
Nov 2
First Quarter

Hourly Weather History & Observations

Time (CDT) Temp. Dew Point Humidity Pressure Visibility Wind Dir Wind Speed Gust Speed Precip Events Conditions
12:15 AM 59.0 °F 50.0 °F 72% 30.04 in 10.0 mi WNW 4.6 mph - N/A   Clear
12:35 AM 55.4 °F 44.6 °F 67% 30.04 in 10.0 mi WNW 3.5 mph - N/A   Clear
12:55 AM 55.4 °F 46.4 °F 72% 30.04 in 10.0 mi NW 5.8 mph - N/A   Clear
1:15 AM 53.6 °F 44.6 °F 72% 30.04 in 10.0 mi NNW 6.9 mph - N/A   Clear
1:35 AM 53.6 °F 46.4 °F 77% 30.03 in 10.0 mi NW 5.8 mph - N/A   Clear
1:55 AM 55.4 °F 48.2 °F 77% 30.03 in 10.0 mi Calm Calm - N/A   Clear
2:15 AM 53.6 °F 46.4 °F 77% 30.03 in 10.0 mi Calm Calm - N/A   Clear
2:35 AM 53.6 °F 46.4 °F 77% 30.03 in 10.0 mi NNW 4.6 mph - N/A   Clear
2:55 AM 53.6 °F 46.4 °F 77% 30.03 in 10.0 mi NNW 5.8 mph - N/A   Clear
3:15 AM 53.6 °F 46.4 °F 77% 30.02 in 10.0 mi NNW 5.8 mph - N/A   Clear
3:35 AM 53.6 °F 48.2 °F 82% 30.02 in 10.0 mi Calm Calm - N/A   Clear
3:55 AM 51.8 °F 46.4 °F 82% 30.01 in 10.0 mi Calm Calm - N/A   Clear
4:35 AM 51.8 °F 46.4 °F 82% 30.01 in 10.0 mi NE 3.5 mph - N/A   Clear
4:55 AM 51.8 °F 48.2 °F 88% 30.00 in 10.0 mi NW 11.5 mph - N/A   Clear
5:15 AM 53.6 °F 48.2 °F 82% 30.01 in 10.0 mi NW 8.1 mph - N/A   Clear
5:35 AM 51.8 °F 46.4 °F 82% 30.01 in 10.0 mi North 6.9 mph - N/A   Clear
5:55 AM 53.6 °F 48.2 °F 82% 30.01 in 10.0 mi Calm Calm - N/A   Clear
6:15 AM 51.8 °F 48.2 °F 88% 30.01 in 10.0 mi North 6.9 mph - N/A   Clear
6:35 AM 51.8 °F 46.4 °F 82% 30.01 in 10.0 mi NNW 3.5 mph - N/A   Clear
6:55 AM 48.2 °F 46.4 °F 93% 30.01 in 10.0 mi NNE 4.6 mph - N/A   Clear
7:15 AM 48.2 °F 46.4 °F 93% 30.02 in 10.0 mi NE 6.9 mph - N/A   Clear
7:35 AM 48.2 °F 44.6 °F 87% 30.02 in 10.0 mi East 4.6 mph - N/A   Clear
7:55 AM 48.2 °F 46.4 °F 93% 30.03 in 10.0 mi Calm Calm - N/A   Clear
8:15 AM 48.2 °F 46.4 °F 93% 30.03 in 10.0 mi Calm Calm - N/A   Clear
8:55 AM 55.4 °F 51.8 °F 88% 30.03 in 10.0 mi Calm Calm - N/A   Clear
9:15 AM 59.0 °F 53.6 °F 82% 30.04 in 10.0 mi SSE 4.6 mph - N/A   Clear
9:35 AM 62.6 °F 53.6 °F 72% 30.04 in 10.0 mi SSE 8.1 mph - N/A   Clear
9:55 AM 64.4 °F 53.6 °F 68% 30.04 in 10.0 mi SE 10.4 mph - N/A   Clear
10:55 AM 73.4 °F 50.0 °F 44% 30.04 in 10.0 mi South 15.0 mph 20.7 mph N/A   Clear
11:15 AM 73.4 °F 48.2 °F 41% 30.03 in 10.0 mi SSE 15.0 mph - N/A   Clear
11:35 AM 75.2 °F 48.2 °F 38% 30.03 in 10.0 mi South 16.1 mph 24.2 mph N/A   Clear
11:55 AM 75.2 °F 48.2 °F 38% 30.03 in 10.0 mi South 17.3 mph 24.2 mph N/A   Clear
12:15 PM 77.0 °F 46.4 °F 34% 30.02 in 10.0 mi South 19.6 mph 27.6 mph N/A   Clear
12:35 PM 78.8 °F 46.4 °F 32% 30.02 in 10.0 mi South 18.4 mph 25.3 mph N/A   Clear
12:55 PM 78.8 °F 46.4 °F 32% 30.01 in 10.0 mi South 18.4 mph 29.9 mph N/A   Clear
1:15 PM 80.6 °F 46.4 °F 30% 30.00 in 10.0 mi South 16.1 mph 28.8 mph N/A   Clear
1:35 PM 80.6 °F 42.8 °F 26% 29.99 in 10.0 mi South 24.2 mph 32.2 mph N/A   Clear
1:55 PM 82.4 °F 42.8 °F 25% 29.98 in 10.0 mi South 24.2 mph 33.4 mph N/A   Clear
2:15 PM 84.2 °F 41.0 °F 22% 29.97 in 10.0 mi South 25.3 mph 29.9 mph N/A   Clear
2:35 PM 84.2 °F 42.8 °F 23% 29.97 in 10.0 mi South 25.3 mph 33.4 mph N/A   Clear
3:35 PM 84.2 °F 41.0 °F 22% 29.95 in 10.0 mi South 19.6 mph 27.6 mph N/A   Clear
3:55 PM 86.0 °F 39.2 °F 19% 29.94 in 10.0 mi South 18.4 mph 36.8 mph N/A   Clear
4:15 PM 86.0 °F 37.4 °F 18% 29.93 in 10.0 mi South 23.0 mph 35.7 mph N/A   Clear
4:35 PM 86.0 °F 37.4 °F 18% 29.93 in 10.0 mi South 25.3 mph 31.1 mph N/A   Clear
4:55 PM 86.0 °F 35.6 °F 17% 29.92 in 10.0 mi South 26.5 mph 33.4 mph N/A   Clear
5:15 PM 86.0 °F 33.8 °F 15% 29.92 in 10.0 mi South 24.2 mph 31.1 mph N/A   Clear
5:35 PM 86.0 °F 30.2 °F 13% 29.92 in 10.0 mi South 23.0 mph 27.6 mph N/A   Clear
5:55 PM 84.2 °F 30.2 °F 14% 29.92 in 10.0 mi South 23.0 mph 28.8 mph N/A   Clear
6:15 PM 84.2 °F 28.4 °F 13% 29.92 in 10.0 mi South 19.6 mph 29.9 mph N/A   Clear
6:35 PM 84.2 °F 26.6 °F 12% 29.92 in 10.0 mi South 21.9 mph 28.8 mph N/A   Clear
6:55 PM 82.4 °F 26.6 °F 13% 29.92 in 10.0 mi South 18.4 mph 24.2 mph N/A   Clear
7:15 PM 80.6 °F 24.8 °F 13% 29.92 in 10.0 mi South 13.8 mph 18.4 mph N/A   Clear
7:35 PM 78.8 °F 24.8 °F 14% 29.92 in 10.0 mi South 12.7 mph - N/A   Clear
7:55 PM 75.2 °F 24.8 °F 15% 29.93 in 10.0 mi SSW 10.4 mph - N/A   Clear
8:15 PM 73.4 °F 24.8 °F 16% 29.93 in 10.0 mi SSW 5.8 mph - N/A   Clear
8:35 PM 71.6 °F 24.8 °F 17% 29.93 in 10.0 mi SSW 4.6 mph - N/A   Clear
8:55 PM 71.6 °F 24.8 °F 17% 29.94 in 10.0 mi SSW 5.8 mph - N/A   Clear
9:15 PM 68.0 °F 26.6 °F 21% 29.95 in 10.0 mi SSW 5.8 mph - N/A   Clear
9:35 PM 66.2 °F 26.6 °F 23% 29.96 in 10.0 mi South 4.6 mph - N/A   Clear
9:55 PM 59.0 °F 24.8 °F 27% 29.96 in 10.0 mi NE 4.6 mph - N/A   Clear
10:15 PM 59.0 °F 24.8 °F 27% 29.96 in 10.0 mi NE 4.6 mph - N/A   Clear
10:35 PM 57.2 °F 24.8 °F 29% 29.96 in 10.0 mi East 6.9 mph - N/A   Clear
10:55 PM 59.0 °F 26.6 °F 29% 29.96 in 10.0 mi East 3.5 mph - N/A   Clear
11:15 PM 57.2 °F 24.8 °F 29% 29.96 in 10.0 mi East 4.6 mph - N/A   Clear
11:35 PM 57.2 °F 24.8 °F 29% 29.96 in 10.0 mi East 9.2 mph - N/A   Clear
11:55 PM 57.2 °F 26.6 °F 31% 29.96 in 10.0 mi ESE 8.1 mph - N/A   Clear